Temp
10 11 11 10 10 10 10 10 9 9 9 9 9 9 8 8 8 7 7 7 7 7
11 10 10 10 10 10 10 9 9 9 9 9 8 8 8 8 8 8 8 7 7 7
10 10 10 10 9 9 9 9 8 8 8 8 8 8 8 8 8 8 8 7 7 7
10 9 10 10 9 9 8 8 8 8 7 7 7 7 7 7 7 7 7 7 7 7
9 9 9 9 8 8 8 8 7 7 7 7 7 7 6 6 6 6 7 7 6 6
9 9 9 8 8 8 7 7 7 7 6 6 6 6 5 5 5 5 5 5 5 5
9 8 8 8 7 7 7 6 6 6 5 5 4 4 4 4 4 4 4 4 5 5
8 7 7 7 6 6 5 5 5 5 4 4 4 4 4 3 3 3 3 3 4 4
7 6 6 6 5 5 5 5 5 4 4 4 4 4 3 2 2 2 2 3 3 3
6 6 6 5 5 5 5 4 4 4 3 3 3 3 2 2 1 1 1 1 2 2
6 6 5 5 5 5 4 4 3 3 3 3 2 2 2 2 1 1 1 1 1 1
5 5 5 4 4 4 4 3 3 3 2 2 2 2 1 1 1 1 1 1 1 1
6 4 4 4 4 3 3 2 3 2 2 2 2 2 2 1 1 1 1 2 1 1
5 5 4 4 3 2 3 2 2 2 2 3 2 2 1 1 1 1 0 1 1 1
Height
813 813 813 813 812 813 812 812 811 809 808 806 805 803 803 801 798 797 796 795 794 792
813 813 813 813 813 812 811 810 809 807 806 805 803 801 800 798 796 794 792 790 789 787
813 813 813 813 812 811 810 809 807 806 805 803 801 799 797 795 793 790 789 787 785 783
813 813 813 813 812 811 810 808 807 805 803 801 798 796 794 792 790 787 785 783 780 778
813 813 813 812 811 810 809 807 805 803 801 798 796 794 792 789 787 784 781 779 776 774
812 812 812 811 810 809 807 806 803 801 798 795 793 791 788 786 783 780 777 775 772 769
812 811 811 810 809 807 806 803 801 798 795 792 790 787 784 782 779 776 773 770 767 764
810 810 809 808 807 805 803 800 798 795 792 789 787 783 780 777 774 770 767 764 761 759
808 807 806 805 804 802 799 797 794 791 788 785 782 779 776 772 769 765 762 758 755 752
806 805 804 803 801 799 796 793 790 787 784 781 777 773 770 767 763 760 756 752 749 747
804 803 801 799 797 795 792 789 785 782 779 776 772 768 764 761 757 753 750 747 744 741
800 799 797 795 793 790 787 784 781 778 774 770 766 762 759 756 752 747 744 740 738 735
796 794 792 790 787 784 782 779 776 772 769 765 760 757 754 751 747 741 738 734 730 728
792 790 788 785 782 779 777 774 771 767 763 760 756 751 748 745 742 737 732 728 723 719
Wind_Speed
0 1 1 2 3 4 5 6 7 8 9 10 11 13 14 14 15 14 16 17 18 18
2 3 2 3 3 3 4 6 7 9 10 10 11 12 13 15 15 15 17 18 19 20
3 3 3 3 3 5 6 8 10 10 11 12 12 13 14 15 15 16 18 18 19 21
3 3 3 4 5 7 8 9 10 11 12 13 14 14 15 16 17 18 19 20 21 23
2 3 4 5 6 8 9 9 10 11 12 14 15 15 16 17 17 19 20 21 21 22
1 2 4 5 7 8 9 10 11 12 13 14 15 16 16 16 17 19 20 21 22 22
2 3 5 6 7 8 10 11 12 13 14 15 17 17 17 16 18 20 21 22 23 23
2 3 5 6 8 10 12 12 13 15 16 16 17 18 19 20 20 22 23 23 24 23
3 5 7 8 10 12 13 14 15 17 17 19 19 22 24 21 21 23 23 24 23 23
5 7 9 10 12 14 15 16 17 18 18 20 22 24 24 24 24 23 23 24 23 23
7 9 11 13 15 16 17 18 19 19 20 22 25 24 26 26 25 23 23 23 24 24
8 12 14 16 17 18 18 19 19 20 22 22 25 26 26 26 25 24 24 22 22 24
14 14 17 18 19 20 21 20 20 21 22 23 25 25 25 24 23 25 25 24 24 24
19 19 19 20 22 19 19 20 20 21 21 22 22 24 23 21 22 23 25 26 26 26
Wind_Direction
357 320 335 329 309 298 301 305 309 310 304 299 296 291 286 282 281 278 273 269 266 266
63 51 36 16 356 337 329 326 330 327 321 315 308 302 296 290 286 283 281 276 271 266
76 63 51 34 9 351 339 336 334 329 324 319 314 308 303 298 296 292 286 280 277 274
76 44 22 7 356 349 343 337 332 328 325 320 317 314 308 302 300 294 291 287 282 278
36 12 0 353 348 345 339 334 329 326 323 320 317 315 310 308 305 301 298 294 292 288
331 344 346 344 342 339 334 330 328 325 322 318 316 314 310 307 306 304 299 296 294 292
329 344 342 339 334 331 328 324 322 319 315 312 310 308 307 306 306 302 297 293 290 288
317 325 327 325 323 321 321 318 315 312 310 308 305 304 301 305 305 302 299 294 290 287
286 298 309 313 314 314 311 309 307 306 304 303 302 299 300 300 302 302 298 295 293 291
282 297 305 308 308 306 305 303 301 301 301 300 299 300 303 303 301 299 295 293 294 295
288 298 302 303 301 301 302 300 301 300 301 302 300 302 302 304 302 296 294 294 292 287
292 296 296 297 298 301 300 298 299 298 297 299 300 303 306 309 304 297 294 295 291 289
298 295 299 296 296 296 296 293 294 294 295 297 298 304 307 308 306 300 298 298 296 294
306 299 294 292 295 295 290 291 292 294 296 296 297 300 304 303 302 301 301 297 297 298